Weather in Yashkul

Russia / Republic of Kalmykia     46°10′18″N   45°20′26″E
temp.,
°C
wind,
m/s
gust,
m/s
humid.,
%
clouds,
%
prec.,
mm/h
press.,
hPa
HPBL,
m
20 april, tue
tue2000:00+13ssw3494100 0.0 101562
03:00+13sw1192100 0.0 101410
06:00+13ese3393100 0.0 101382
09:00+17ese71160100 0.0 1012632
12:00+21se111548100 0.0 10091319
15:00+22se101343100 0.1 10091412
18:00+19se81354100 0.1 1009667
21:00+16se51071100 0.8 1012356
21 april, wed
wed2100:00+14ese2385100 1.3 101292
03:00+14n0189100 2.4 101417
06:00+14nw4786100 0.3 1016393
09:00+13nw5968100 0.3 1018505
12:00+17nw6753100 0.0 10181044
15:00+14nw786899 0.0 1018557
18:00+13nw4571100 0.0 1020418
21:00+13wnw357697 0.0 1021198
22 april, thu
thu2200:00+11nw358341 0.0 102188
03:00+11nnw358043 0.0 102182
06:00+11n2479100 0.0 1022116
09:00+14ne2262100 0.0 1023572
12:00+16e125381 0.0 10231228
15:00+18ne2345100 0.0 10221626
18:00+18ne1150100 0.0 102126
21:00+15se1255100 0.0 102212
23 april, fri
fri2300:00+14e3460100 0.0 102086
03:00+13e2367100 0.0 1020101
06:00+12ssw2283100 0.4 1021109
09:00+15nw3463100 0.4 1021667
12:00+16nw4548100 0.0 10201177
15:00+17nw564665 0.0 10201293
18:00+17nw3553100 0.0 1020213
21:00+15nw22625 0.0 102046
24 april, sat
sat2400:00+12nw22724 0.0 101916
03:00+12w3374100 0.0 101927
06:00+12w3472100 0.0 101973
09:00+16wsw235640 0.0 1019538
12:00+20sw35395 0.0 10191941
15:00+21sw4637100 0.0 10182436
18:00+17w365913 0.1 1018286
21:00+15w356258 0.1 101973